Location: Harbor Island
(32.3990°N, 80.4435°W)
Time: 23:36:30
(UTC-04:00)

Daily predictions for brighter satellites

Satellite Brightness Start Highest point End
(mag) Time Altitude Azimuth Time Altitude Azimuth Time Altitude Azimuth
NOSS 2-1 (E) 4.4 20:16:44 10° SW 20:20:14 46° WNW 20:23:54 10° NNE
Cosmos 1610 Rocket 4.5 20:15:15 10° S 20:21:16 65° E 20:27:22 10° NNE
Sich 1 3.8 20:17:46 10° NNE 20:21:34 31° E 20:25:21 10° SE
H-2A R/B 3.8 20:24:47 10° S 20:28:22 47° W 20:32:00 10° NNW
In-Cosmos 22 Rocket 4.1 20:24:13 10° N 20:29:37 68° E 20:34:54 10° SSE
ASTRO E2 3.5 20:27:44 10° SW 20:31:22 33° SSE 20:34:55 10° E
USA 186 3.0 20:31:44 11° E 20:32:30 13° ENE 20:33:36 10° NE
NOSS 3-3 (A) 4.2 20:29:04 10° SW 20:34:58 77° WNW 20:41:24 10° NNE
NOSS 3-3 (C) 4.1 20:29:10 10° SSW 20:35:05 78° WNW 20:41:30 10° NNE
FREGAT/IRIS 3.1 20:34:46 10° S 20:37:41 59° W 20:40:36 10° NNW
Cosmos 1633 Rocket 3.4 20:41:00 10° N 20:45:09 43° E 20:49:18 10° SSE
SL-16 R/B 3.5 20:43:35 10° SE 20:47:12 17° E 20:50:48 10° ENE
Nadezhda 3 Rocket 4.0 20:43:52 10° N 20:50:10 65° E 20:56:27 10° SSE
Cosmos 1515 Rocket 4.1 20:48:19 10° SSE 20:52:24 37° E 20:56:32 10° NNE
ATLAS CENTAUR R/B 2.7 20:56:44 10° SW 21:00:07 38° WNW 21:03:38 10° NNE
Cosmos 2228 Rocket 3.2 20:58:11 10° SSE 21:02:24 49° E 21:06:39 10° NNE
Cosmos 1371 Rocket 4.4 20:58:37 10° S 21:03:33 41° E 21:08:32 10° NNE
SJ-6B 3.4 20:59:39 10° S 21:03:39 60° W 21:07:36 10° NNW
H-2A R/B 4.0 21:05:16 11° ENE 21:05:41 11° ENE 21:06:47 10° NE
ATLAS 3B CENTAUR R/B 4.5 20:53:28 10° W 21:07:34 32° SW 21:13:47 11° SSE
Meteor 2-3 Rocket 3.7 21:02:21 10° N 21:07:56 64° E 21:13:03 12° SSE
Timation 1 Rocket 4.4 21:03:45 10° NNW 21:09:45 85° WSW 21:15:11 13° SSE
Cosmos 1328 Rocket 3.6 21:05:33 10° S 21:09:56 84° W 21:14:23 10° N
Envisat 3.5 21:06:30 10° S 21:11:30 61° W 21:16:32 10° NNW
Cosmos 1980 3.7 21:07:01 10° SSW 21:12:42 85° WNW 21:18:25 10° NNE
Cosmos 1869 3.9 21:12:06 30° ESE 21:13:00 34° E 21:16:40 10° NNE
OAO 1 4.5 21:07:50 10° WNW 21:13:21 83° SSW 21:16:24 27° ESE
Cosmos 1939 Rocket 2.6 21:11:36 20° SSE 21:14:11 76° ENE 21:18:05 10° N
Cosmos 1408 3.4 21:11:12 10° NNE 21:14:30 31° E 21:14:42 31° E
ERS-2 2.7 21:14:56 11° S 21:18:21 56° WSW 21:21:59 10° NNW
Cosmos 2251 Rocket 4.3 21:15:13 10° NNW 21:20:26 52° WSW 21:25:35 10° S
Cosmos 1455 3.5 21:20:24 10° SSW 21:24:01 41° W 21:27:41 10° N
Cosmos 2056 Rocket 3.7 21:19:37 10° S 21:24:51 53° ESE 21:30:06 10° NNE
Cosmos 2333 Rocket 3.7 21:20:44 10° SW 21:25:58 38° WNW 21:31:12 10° N
YAOGAN 6 3.0 21:24:43 20° S 21:27:00 60° W 21:30:36 10° NNW
Resurs 01 Rocket 1.6 21:25:32 23° SSE 21:28:18 87° W 21:32:45 10° NNW
Cosmos 1844 Rocket 3.7 21:23:52 10° NW 21:29:12 43° WSW 21:34:29 10° S
Cosmos 1470 Rocket 3.4 21:24:55 10° N 21:29:21 75° E 21:31:13 34° SSE
Cosmos 1959 Rocket 4.4 21:24:35 10° S 21:30:42 67° E 21:36:46 10° NNE
Cosmos 2098 Rocket 3.1 21:34:45 37° SSE 21:36:26 59° E 21:40:24 10° NNE
Cosmos 2219 Rocket 4.4 21:31:51 10° WSW 21:36:31 26° WNW 21:41:13 10° N
Sakura Rocket 3.0 21:32:59 10° W 21:37:37 52° S 21:37:55 50° SSE
OAO 2 Rocket 3.5 21:32:34 10° WNW 21:37:42 62° SSW 21:39:04 45° SE
Cosmos 1727 Rocket 4.4 21:33:24 10° N 21:39:08 39° E 21:40:09 37° ESE
Cosmos 2237 Rocket 3.0 21:34:23 10° SW 21:39:50 52° WNW 21:45:20 10° N
deb Centaur AC-2 4.4 21:36:16 10° W 21:40:28 48° SSW 21:41:01 46° SSE
Cosmos 1624 Rocket 3.8 21:36:28 10° SSW 21:41:39 83° ESE 21:46:51 10° NNE
Genesis I 3.4 21:45:19 10° NW 21:49:22 68° WSW 21:49:41 64° SSW
Cosmos 2218 Rocket 4.1 21:44:15 10° S 21:50:35 82° W 21:57:00 10° N
Cosmos 1151 Rocket 4.3 21:48:05 10° SSW 21:52:03 38° W 21:56:03 10° N
OAO 3 Copernicus 4.2 21:48:16 10° WSW 21:53:18 83° NNW 21:54:23 56° ENE
NOAA 11 4.2 21:51:00 36° S 21:53:20 81° WSW 21:58:51 10° NNW
ATLAS 2AS CENTAUR R/B 2.9 21:45:49 10° NNW 21:53:33 77° WSW 21:56:47 36° SSE
Spot 2 Rocket 3.8 21:51:53 32° S 21:54:13 65° WSW 21:59:18 10° NNW
Cosmos 2278 Rocket 2.1 21:48:55 10° NNW 21:54:37 89° WSW 21:56:10 50° SSE
SL-08 R/B 4.4 21:50:27 21° S 21:54:55 85° E 22:01:21 10° N
Cosmos 1933 Rocket 4.0 21:53:30 10° NNW 21:57:48 59° W 21:58:47 46° SW
Cosmos 2366 rocket 4.1 21:54:48 12° S 22:00:38 75° W 22:06:56 10° N
ASTRO E2 4.2 22:07:40 10° WSW 22:09:50 30° WSW 22:09:50 30° WSW
Cosmos 1825 3.5 22:09:52 10° NNW 22:13:04 38° WNW 22:13:04 38° WNW
GEOS 3 Rocket 4.3 22:14:15 10° NE 22:17:47 43° NE 22:17:47 43° NE
Cosmos 1339 Rocket 4.5 22:15:47 10° N 22:21:53 76° W 22:22:59 60° SSW
NOSS 3-4 (A) 4.0 22:17:02 10° NNW 22:24:05 57° ENE 22:24:49 55° E
NOSS 3-4 (C) 4.0 22:17:08 10° NNW 22:24:12 56° ENE 22:24:54 54° ENE
CZ-4C R/B 4.2 22:30:39 15° NE 22:30:39 15° NE 22:31:39 10° NE
ERS-1 Rocket 3.7 22:30:03 47° N 22:30:03 47° N 22:33:41 10° N
ARGOS 3.2 22:29:23 74° NW 22:29:23 74° NW 22:34:22 10° NNW
MetOp-B 4.3 22:30:03 70° NNW 22:30:03 70° NNW 22:34:46 10° NNW
SL-16 R/B 3.0 22:25:22 10° SW 22:30:49 49° WNW 22:36:18 10° N
USA 267 3.2 22:25:47 10° NE 22:35:39 32° SSW 22:38:51 10° SW
Cosmos 2344 3.5 22:30:50 10° SSW 22:38:34 81° WNW 22:46:34 10° NNE
Cosmos 407 Rocket 4.1 22:33:47 10° NNW 22:37:42 52° NW 22:37:42 52° NW
H-2A R/B 2.8 22:45:53 47° NW 22:45:53 47° NW 22:49:29 10° NNW
Terra 4.2 22:52:36 16° NNE 22:52:36 16° NNE 22:53:39 10° N
Cosmos 2369 Rocket 4.2 23:08:10 10° N 23:10:23 20° NNE 23:10:23 20° NNE
Lacrosse 5 4.4 23:17:00 10° N 23:18:20 14° NNE 23:18:20 14° NNE
Centaur D-1A AC-31 4.1 23:23:43 10° WSW 23:25:38 16° WSW 23:25:38 16° WSW
ATLAS 2A CENTAUR R/B 4.1 23:22:31 10° WSW 23:33:58 45° SW 23:33:58 45° SW
ATLAS 5 CENTAUR R/B 4.2 23:32:44 10° N 23:35:40 24° NNE 23:35:40 24° NNE
